Regional Weather Roundup
Issued by NWS

Home | Current Version | Previous Version | Text Only | Print | Product List | Glossary Off
Versions: 1 2 3 4 5 6 7 8 9 10 11 12 13 14 15 16 17 18 19 20 21 22 23 24 25 26 27 28 29 30 31 32 33 34 35 36 37 38 39 40 41 42 43 44 45 46 47 48 49 50

000
ASUS43 KMKX 280511
RWRWI

WISCONSIN REGIONAL WEATHER ROUNDUP
NATIONAL WEATHER SERVICE MILWAUKEE/SULLIVAN WI
1200 AM CDT FRI AUG 28 2015

NOTE: "FAIR" INDICATES FEW OR NO CLOUDS BELOW 12,000 FEET WITH NO
SIGNIFICANT WEATHER AND/OR OBSTRUCTIONS TO VISIBILITY.

WIZ001-002-006>008-014>016-023>028-280600-
NORTHWEST WISCONSIN

CITY           SKY/WX    TMP DP  RH WIND       PRES   REMARKS
SUPERIOR ARPT  CLOUDY    56  52  84 CALM      29.99F
ASHLAND        PTCLDY    57  57 100 S3        30.00F
HAYWARD        CLOUDY    64  58  80 S6        30.02F
SIREN          MOCLDY    63  60  88 S5        30.00F
CUMBERLAND     PTCLDY    57  55  94 SE3       30.03S
RICE LAKE      PTCLDY    60  57  91 SE3       30.04S
CHETEK         PTCLDY   N/A N/A N/A E3        30.04R
LADYSMITH      PTCLDY    61  58  88 SE3       30.06S
EAU CLAIRE     MOCLDY    64  58  80 SE3       30.02F
MENOMONIE      MOCLDY    60  59  96 SE5       30.03S
NEW RICHMOND   MOCLDY    60  59  95 CALM      30.02S
OSCEOLA        MOCLDY    62  61  98 SE3       30.04S
$$

WIZ003>005-009-010-017-018-280600-
NORTH CENTRAL WISCONSIN

CITY           SKY/WX    TMP DP  RH WIND       PRES   REMARKS
MANITOWISH WTR MOCLDY    60  58  94 S3        30.05S
ARBOR VITAE    MOCLDY    59  56  89 CALM      30.06S
WOODRUFF       MOCLDY    59  56  89 CALM      30.06S
RHINELANDER    MOCLDY    56  53  90 CALM      30.08S
EAGLE RIVER    PTCLDY    54  54  99 CALM      30.06S
LAND O LAKES   MOCLDY    58  55  89 CALM      30.07R
PHILLIPS       CLOUDY    60  58  92 S3        30.05S
TOMAHAWK       PTCLDY    55  54  96 CALM      30.07S
MEDFORD        PTCLDY    58  56  94 S5        30.07S
MERRILL        PTCLDY    55  55 100 CALM      30.08S
$$

WIZ029-030-035-036-043>047-280600-
CENTRAL WISCONSIN

CITY           SKY/WX    TMP DP  RH WIND       PRES   REMARKS
WAUSAU         CLEAR     60  57  89 S3        30.07R
MOSINEE        PTCLDY    59  57  94 S7        30.09S
MARSHFIELD     MOCLDY    60  55  83 S5        30.07F
STEVENS POINT  PTCLDY    57  55  91 CALM      30.09S
WAUPACA        MOCLDY    60  59  96 S3        30.09R
WAUTOMA        PTCLDY    58  57  96 CALM      30.10R
WISC RAPIDS    MOCLDY    62  56  80 S3        30.09S
CAMP DOUGLAS   MOCLDY    57  57 100 E5        30.07F
$$

WIZ011>013-019>022-031-037>040-048>050-280600-
NORTHEAST WISCONSIN

CITY           SKY/WX    TMP DP  RH WIND       PRES   REMARKS
ANTIGO         PTCLDY    56  54  94 S6        30.09R
SHAWANO        PTCLDY    63  57  81 CALM      30.08S
OCONTO         PTCLDY    58  58 100 CALM      30.07S
STURGEON BAY   PTCLDY    57  52  82 S10       30.10F
GREEN BAY      PTCLDY    59  56  89 S6        30.09S
MANITOWOC      CLEAR     60  54  80 MISG      30.11F
APPLETON       CLEAR     61  55  82 S7        30.08S
CLINTONVILLE   PTCLDY    59  55  88 CALM      30.08S
OSHKOSH        CLEAR     58  55  90 S8        30.09F
$$

WIZ032>034-041-042-053>061-280600-
SOUTHWEST WISCONSIN

CITY           SKY/WX    TMP DP  RH WIND       PRES   REMARKS
LA CROSSE      MOCLDY    65  59  81 S5        30.06R
SPARTA         PTCLDY    59  57  92 CALM      30.07S
VIROQUA        MOCLDY    62  59  88 S6        30.09R
BOSCOBEL       MOCLDY    61  58  90 CALM      30.08F
PRAIRIE DU CHI CLOUDY    65  58  77 E6        30.07S
PLATTEVILLE    CLOUDY    63  60  90 SE7       30.10S
$$

WIZ056-057-062-063-064-067-068-280600-
SOUTH CENTRAL WISCONSIN

CITY           SKY/WX    TMP DP  RH WIND       PRES   REMARKS
REEDSBURG      PTCLDY    60  57  92 CALM      30.08F
BARABOO/DELLS  PTCLDY    59  56  88 S5        30.09F
LONE ROCK      PTCLDY    58  55  90 NE3       30.10S
MINERAL POINT  PTCLDY    61  57  88 SE3       30.11S
MADISON        CLEAR     64  56  75 S7        30.10F
MIDDLETON      CLEAR     63  56  79 S5        30.11F
WATERTOWN      CLEAR     59  55  87 SE5       30.12R
MONROE         CLEAR     61  55  82 SE10      30.11F
JANESVILLE     CLEAR     59  55  88 SE3       30.12S
$$

WIZ051-052-058>065-066-070>072-280600-
SOUTHEAST WISCONSIN

CITY           SKY/WX    TMP DP  RH WIND       PRES   REMARKS
MILWAUKEE      PTCLDY    60  54  80 SW5       30.14R
WAUKESHA       CLEAR     55  52  88 S5        30.14S
MILWAUKEE/TIMM CLEAR     59  52  77 S3        30.14R
RACINE         CLEAR     58  54  86 SW5       30.15S
BURLINGTON     CLEAR     50  50  97 CALM      30.14S
KENOSHA        CLEAR     56  53  90 CALM      30.14S
FOND DU LAC    CLEAR     59  56  89 S7        30.10F
SHEBOYGAN      CLEAR     53  51  93 SW5       30.12S
WEST BEND      CLEAR     55  50  82 CALM      30.13R
JUNEAU         CLEAR     58  54  87 SE7       30.12S
$$

LSZ147-162-280600-
LAKE SUPERIOR

STATION/POSITION TIME  TEMP    WIND        PRES    WAVE
                       AIR SEA DIR/SP/G            HT/PER
                 (UTC) (F)     (DEG/KT/KT) (MB)    (FT/S)
W MID LAKE BUOY  0450   59 56  160/  8/  8 1015.5F   0
DEVILS ISLAND    0500   60      80/  2/  2 1015.6F
PORT WING        0440   56     220/  2/  3 1015.6F
SAXON HARBOR     0440   62      CALM  /  3 1015.2F
$$

LMZ867-665-643>646-280600-
LAKE MICHIGAN

STATION/POSITION TIME  TEMP    WIND        PRES    WAVE
                       AIR SEA DIR/SP/G            HT/PER
                 (UTC) (F)     (DEG/KT/KT) (MB)    (FT/S)
CHAMBERS ISLAND  0400   62     170/  5/ 11 1018.6S
S GREEN BAY BUOY 0400   63     180/ 12/ 16 1020.2F
N MID LAKE BUOY  0450   63 64  210/ 17/ 19 1018.7F   3/ 4
NORTHPORT PIER   0500   62     160/  5/ 14 1018.3F
SISTER BAY       0419   61     180/ 14/ 17   N/A
ALGOMA LAKESHORE 0444          190/  5/  6   N/A
KEWAUNEE LAKESHO 0400   53     170/  7/  9 1018.5F
SHEBOYGAN LAKESH 0500   61     210/  8/  8 1020.1F
PORT WASHINGTON  0400   51      CALM  /  1 1020.7F
ATWATER BUOY     0500   53 47  180/  6/  6 1021.8R
MILWAUKEE LAKESH 0400   60     130/  4/  5   N/A
S MID LAKE BUOY  0450   66 69  130/  8/ 10 1020.3F   0
KENOSHA   LAKESH 0500   63     210/  6/  7 1020.3R
$$

TC  - TEMPERATURE IN CELSIUS
VSB - VISIBILITY IN STATUTE MILES
WCI - WIND CHILL INDEX
HX  - HEAT INDEX




USA.gov is the U.S. government's official web portal to all federal, state and local government web resources and services.